[[{"header":{"parameterUnit":"m.s-1","parameterCategory":1,"la1":30.2991,"la2":30.254,"lo1":-89.0895,"lo2":-89.0444,"dy":0.0017,"dx":0.0017,"nx":28,"ny":28,"refTime":"2025-08-14T09:00:00:Z","depth":0,"parameterNumber":2,"parameterNumberName":"U-component_of_WINDS"},"data":[0,0,0,0,0,0,0,0,0,0,0,0,0,0,0,0,0,0,0,0,0,0,0,0,0,0,0,0,0,0,0,0,0,0,0,0,0,0,0,0,0,0,0,0,0,0,0,0,0,0,0,0,0,0,0,0,0,0,1.2982,1.2983,0,1.3138,1.314,1.3142,1.3194,1.3193,1.3193,1.3192,1.3353,1.3357,1.3362,0,0,0,0,0,0,0,0,0,0,0,0,0,1.2727,1.2731,1.2982,1.2984,1.2985,1.3138,1.314,1.3142,1.3194,1.3193,1.3192,1.3192,1.3351,1.3357,1.3363,0,0,0,0,0,0,0,0,0,0,0,0,0,1.2856,1.2733,1.2981,1.303,1.3036,1.3138,1.314,1.3143,1.3194,1.3193,1.3192,1.3191,1.3349,1.3356,1.3363,1.3429,0,0,1.3386,1.3389,0,0,0,0,0,0,0,0,1.2848,1.2865,1.3021,1.3027,1.3033,1.3146,1.3109,1.3239,1.3195,1.3134,1.3192,1.3191,1.3284,1.3297,1.3329,1.3436,1.3443,1.3386,1.3391,1.3394,1.3396,0,0,0,0,0,0,0,1.2839,1.2859,1.3044,1.3023,1.3031,1.3044,1.3061,1.3134,1.3213,1.3139,1.3143,1.3161,1.3288,1.3321,1.3333,1.3445,1.3386,1.3393,1.3397,1.34,1.3614,1.3615,0,0,0,0,0,0,1.2822,1.2851,1.3039,1.3048,1.2937,1.3049,1.3068,1.3111,1.3212,1.3227,1.3162,1.3163,1.3309,1.3324,1.3339,1.3422,1.3394,1.3401,1.3405,1.3613,1.3614,1.3616,0,0,0,0,0,0,1.2817,1.2839,1.3032,1.2951,1.2976,1.3054,1.3102,1.3114,1.3148,1.3229,1.3244,1.3182,1.3309,1.3328,1.3406,1.3428,1.3404,1.3411,1.3611,1.3613,1.3615,1.3588,0,0,0,0,0,0,1.2809,1.2836,1.2862,1.2951,1.2981,1.3097,1.3103,1.3118,1.316,1.3163,1.3252,1.3266,1.331,1.3395,1.3413,1.3438,1.3417,1.361,1.3612,1.3615,1.3587,1.3589,1.359,0,0,0,0,0,1.28,1.2848,1.2863,1.2885,1.3014,1.3098,1.3115,1.3165,1.3162,1.3188,1.3241,1.3263,1.3422,1.3402,1.3423,1.345,1.3609,1.3612,1.3614,1.3586,1.3588,1.359,0,0,0,0,0,0,1.2759,1.286,1.2878,1.2956,1.3018,1.3106,1.3141,1.3165,1.3229,1.3229,1.3288,1.3308,1.3381,1.3424,1.3399,1.3519,1.3517,1.3524,1.3488,1.3491,1.3492,1.348,1.3423,0,0,0,0,0,1.2759,1.2819,1.2904,1.2965,1.2995,1.3063,1.3101,1.3134,1.32,1.3227,1.3285,1.3348,1.3413,1.3454,1.3518,1.3594,1.3614,1.3623,1.3624,1.3625,1.363,1.3673,1.3678,1.3625,1.3625,1.3625,0,0,1.276,1.2823,1.2857,1.2958,1.301,1.307,1.3084,1.3147,1.3193,1.3237,1.3313,1.3358,1.3433,1.3509,1.3546,1.3547,1.3649,1.3628,1.3628,1.3634,1.3677,1.3682,1.3686,1.3627,1.3627,1.3627,0,0,1.2792,1.2846,1.2902,1.2954,1.3032,1.3077,1.309,1.3175,1.3207,1.3285,1.3319,1.3373,1.3483,1.3535,1.3576,1.3628,1.3651,1.3647,1.3654,1.3695,1.37,1.3703,1.3722,1.3728,1.3652,1.3652,1.3652,0,1.2783,1.2875,1.2928,1.299,1.3033,1.3076,1.3134,1.3181,1.3276,1.3305,1.3305,1.3444,1.3497,1.3587,1.3599,1.3631,1.3648,1.3637,1.3695,1.3699,1.3704,1.3722,1.3729,1.3651,1.3652,1.3652,1.3652,0,1.286,1.2924,1.296,1.3051,1.3099,1.3158,1.3219,1.3262,1.3291,1.3335,1.3414,1.348,1.3557,1.3581,1.361,1.3675,1.3673,1.3683,1.3682,1.3707,1.3725,1.3732,1.365,1.365,1.3651,1.3651,0,0,1.287,1.299,1.3002,1.3044,1.3134,1.3184,1.3245,1.3321,1.3356,1.342,1.3473,1.3565,1.3575,1.3621,1.3656,1.3693,1.3729,1.3698,1.3701,1.3702,1.3804,1.3796,1.3803,1.3745,1.3746,1.3748,1.3798,0,1.2914,1.3025,1.3075,1.3163,1.3223,1.3264,1.3318,1.3378,1.3422,1.3478,1.3526,1.359,1.3599,1.3627,1.3664,1.3717,1.375,1.3714,1.3794,1.3796,1.3774,1.3812,1.3804,1.3848,1.3805,1.3806,1.3807,0,1.2979,1.3044,1.3139,1.3221,1.3248,1.3295,1.3369,1.3423,1.3492,1.3521,1.3573,1.3607,1.3672,1.3667,1.3758,1.3732,1.3768,1.3799,1.3802,1.3811,1.3803,1.3822,1.3863,1.3869,1.3819,1.3818,1.3817,0,1.2977,1.3087,1.3159,1.3193,1.3291,1.3323,1.3366,1.3435,1.3477,1.3542,1.357,1.3641,1.368,1.3735,1.3787,1.3778,1.3873,1.3872,1.3899,1.3897,1.3917,1.3915,1.3963,1.394,1.394,1.394,1.394,0,1.302,1.3076,1.3159,1.3202,1.3267,1.3323,1.3385,1.343,1.3491,1.3544,1.3585,1.3633,1.3699,1.3757,1.3798,1.3867,1.3884,1.3909,1.392,1.3906,1.3902,1.393,1.3928,1.3942,1.3941,1.3941,1.3941,0,1.3028,1.3085,1.3166,1.3252,1.3276,1.3319,1.3393,1.3437,1.3482,1.3549,1.3568,1.3639,1.3709,1.3766,1.3857,1.3885,1.3957,1.3969,1.3933,1.3939,1.3962,1.3959,1.403,1.4042,1.401,1.401,1.4011,0,1.3051,1.3096,1.3187,1.3226,1.3268,1.3329,1.3373,1.3431,1.3475,1.3557,1.3591,1.3663,1.3724,1.3833,1.3893,1.3963,1.3977,1.3997,1.3988,1.3972,1.3977,1.3973,1.3978,1.3997,1.3998,1.3998,1.3998,0,1.3087,1.3113,1.3175,1.3247,1.3298,1.3358,1.3418,1.3447,1.3516,1.3563,1.3635,1.3682,1.3775,1.3846,1.3922,1.3966,1.3993,1.4,1.401,1.3996,1.3973,1.3986,1.3935,1.3998,1.3998,1.3998,1.3998,1.3998,1.3103,1.3144,1.3215,1.3283,1.3335,1.339,1.3436,1.3487,1.3548,1.3628,1.3658,1.3731,1.38,1.3905,1.3949,1.4007,1.4011,1.4025,1.4028,1.4031,1.4029,1.3964,1.4022,1.4022,1.4022,1.4022,1.4022,0,1.314,1.3188,1.325,1.3333,1.3387,1.3408,1.3476,1.3519,1.3583,1.3645,1.3704,1.3786,1.3855,1.3921,1.3993,1.4027,1.4041,1.4044,1.4042,1.4052,1.4022,1.4006,1.4032,1.4032,1.4032,1.4032,1.4032,1.4031,1.3166,1.3237,1.3272,1.3369,1.3417,1.3489,1.3526,1.3577,1.3627,1.3717,1.3775,1.3817,1.3881,1.3958,1.4023,1.404,1.4065,1.4064,1.4085,1.4056,1.4054,1.4052,1.4038,1.4069,1.4069,1.411,1.411,1.411]},{"header":{"parameterUnit":"m.s-1","parameterCategory":1,"la1":30.2991,"la2":30.254,"lo1":-89.0895,"lo2":-89.0444,"dy":0.0017,"dx":0.0017,"nx":28,"ny":28,"refTime":"2025-08-14T09:00:00:Z","depth":0,"parameterNumber":3,"parameterNumberName":"V-component_of_WINDS"},"data":[0,0,0,0,0,0,0,0,0,0,0,0,0,0,0,0,0,0,0,0,0,0,0,0,0,0,0,0,0,0,0,0,0,0,0,0,0,0,0,0,0,0,0,0,0,0,0,0,0,0,0,0,0,0,0,0,0,0,5.1951,5.1951,0,5.1969,5.197,5.197,5.1915,5.1913,5.1912,5.191,5.1926,5.1928,5.193,0,0,0,0,0,0,0,0,0,0,0,0,0,5.1865,5.1867,5.1951,5.1951,5.1952,5.1969,5.197,5.197,5.1915,5.1913,5.1911,5.1909,5.1925,5.1927,5.193,0,0,0,0,0,0,0,0,0,0,0,0,0,5.1895,5.1868,5.1951,5.1927,5.1925,5.1969,5.197,5.197,5.1916,5.1913,5.1911,5.1908,5.1924,5.1927,5.193,5.1998,0,0,5.1939,5.194,0,0,0,0,0,0,0,0,5.1893,5.1898,5.193,5.1928,5.1926,5.1937,5.1945,5.1979,5.1916,5.1919,5.191,5.1907,5.1931,5.1934,5.1942,5.1999,5.2,5.1939,5.1941,5.1942,5.1943,0,0,0,0,0,0,0,5.1891,5.1897,5.1958,5.193,5.1928,5.1914,5.1915,5.1951,5.1939,5.1919,5.1915,5.1918,5.193,5.194,5.1942,5.2,5.1939,5.1942,5.1944,5.1945,5.2113,5.2115,0,0,0,0,0,0,5.1893,5.1896,5.1958,5.1959,5.1903,5.1917,5.1919,5.1936,5.1938,5.1936,5.192,5.1915,5.1936,5.1939,5.1943,5.2023,5.1942,5.1945,5.1947,5.211,5.2114,5.2116,0,0,0,0,0,0,5.1891,5.1899,5.1957,5.1926,5.1933,5.1921,5.1941,5.1938,5.1948,5.1939,5.1937,5.1933,5.1934,5.1939,5.1985,5.2022,5.1946,5.1949,5.2107,5.2111,5.2115,5.2183,0,0,0,0,0,0,5.1889,5.1899,5.1925,5.1927,5.1934,5.2,5.1944,5.194,5.1953,5.1947,5.195,5.1949,5.1932,5.1981,5.1988,5.2025,5.1951,5.2104,5.2109,5.2114,5.2177,5.2189,5.2199,0,0,0,0,0,5.1886,5.1943,5.1927,5.1935,5.1968,5.2002,5.2006,5.1987,5.1957,5.1983,5.1977,5.1948,5.2017,5.1986,5.1994,5.2032,5.2101,5.2107,5.2113,5.2172,5.2187,5.2198,0,0,0,0,0,0,5.1944,5.1943,5.1925,5.1984,5.1994,5.1993,5.2025,5.2003,5.2021,5.2014,5.1989,5.199,5.2041,5.2041,5.2007,5.2098,5.2054,5.2062,5.2096,5.2109,5.212,5.2119,5.1954,0,0,0,0,0,5.1964,5.1994,5.199,5.2043,5.2049,5.2037,5.2051,5.2036,5.2044,5.2048,5.2046,5.2054,5.2078,5.2094,5.2115,5.2177,5.2177,5.2207,5.2218,5.2227,5.2234,5.2266,5.228,5.2136,5.2136,5.2136,0,0,5.2005,5.2008,5.2028,5.2055,5.206,5.2091,5.204,5.2074,5.2096,5.2052,5.2097,5.2096,5.2103,5.2158,5.2182,5.216,5.2273,5.2235,5.2242,5.2244,5.2274,5.2288,5.23,5.214,5.214,5.2139,0,0,5.2095,5.2101,5.2145,5.2152,5.2162,5.2154,5.2165,5.2167,5.2165,5.2209,5.2177,5.2202,5.2243,5.225,5.2259,5.2353,5.2327,5.236,5.2416,5.2448,5.2459,5.2469,5.2502,5.2514,5.2367,5.2367,5.2368,0,5.2145,5.219,5.217,5.2207,5.2219,5.2183,5.2227,5.2235,5.225,5.2259,5.2234,5.2285,5.2288,5.2344,5.2367,5.2375,5.2386,5.2359,5.246,5.2469,5.2478,5.2509,5.2522,5.2371,5.2371,5.2371,5.237,0,5.225,5.2282,5.2316,5.2334,5.235,5.239,5.2376,5.2395,5.2378,5.2372,5.2417,5.242,5.244,5.2453,5.2437,5.2506,5.2492,5.2464,5.2419,5.2496,5.2525,5.2537,5.2377,5.2376,5.2374,5.2374,0,0,5.2376,5.2384,5.2396,5.2404,5.2413,5.2436,5.2474,5.2496,5.2513,5.2525,5.2556,5.2592,5.2566,5.2576,5.256,5.2589,5.2662,5.2557,5.2556,5.2576,5.2739,5.276,5.2774,5.2645,5.2648,5.2649,5.2738,0,5.2465,5.2532,5.2516,5.2581,5.261,5.2576,5.261,5.2618,5.2613,5.2636,5.2631,5.2657,5.262,5.2626,5.2653,5.2648,5.2695,5.2641,5.2673,5.2674,5.2672,5.2789,5.2812,5.2896,5.2749,5.2751,5.2753,0,5.2577,5.2595,5.2664,5.2668,5.268,5.271,5.2729,5.2752,5.276,5.2755,5.2767,5.2745,5.2782,5.2738,5.2788,5.2752,5.2764,5.2763,5.2766,5.2768,5.2718,5.2794,5.2922,5.2934,5.277,5.2769,5.2768,0,5.2662,5.2703,5.275,5.2757,5.2764,5.2786,5.2789,5.2795,5.281,5.2825,5.2834,5.2854,5.2865,5.288,5.2865,5.2834,5.2917,5.2871,5.2913,5.2913,5.2931,5.293,5.3063,5.294,5.294,5.294,5.2939,0,5.2762,5.2805,5.2788,5.2817,5.2865,5.2845,5.2893,5.2892,5.2898,5.2925,5.2897,5.2922,5.2901,5.2924,5.2912,5.2955,5.296,5.2957,5.2953,5.2959,5.2959,5.2966,5.296,5.2943,5.2942,5.2942,5.2941,0,5.2864,5.2855,5.2904,5.2906,5.2908,5.2942,5.2944,5.297,5.2964,5.2999,5.3005,5.2995,5.3022,5.3008,5.3035,5.3027,5.3083,5.3071,5.3081,5.3077,5.312,5.3116,5.3261,5.3279,5.3145,5.3146,5.3147,0,5.2929,5.2962,5.2968,5.2985,5.2991,5.3018,5.3033,5.3015,5.3031,5.3044,5.3069,5.3093,5.3112,5.3156,5.315,5.3171,5.3159,5.3208,5.3162,5.3167,5.3159,5.3158,5.3161,5.3217,5.3219,5.322,5.3221,0,5.3044,5.3038,5.3061,5.3083,5.3102,5.3117,5.3131,5.3146,5.3128,5.3148,5.3176,5.319,5.3219,5.3243,5.3261,5.3263,5.3239,5.3236,5.3247,5.3253,5.3257,5.3256,5.3106,5.3233,5.3232,5.3231,5.323,5.323,5.3129,5.3157,5.3166,5.3193,5.3201,5.3215,5.3239,5.3237,5.326,5.3283,5.327,5.3303,5.331,5.3332,5.3337,5.3362,5.3342,5.3357,5.3361,5.3365,5.3371,5.3254,5.3365,5.3364,5.3364,5.3364,5.3364,0,5.3243,5.3247,5.3272,5.3292,5.3313,5.3291,5.3304,5.3323,5.3352,5.3362,5.3381,5.3413,5.3436,5.3433,5.3454,5.3474,5.3464,5.3481,5.3479,5.348,5.3388,5.3376,5.3489,5.3489,5.3489,5.3489,5.3489,5.3489,5.3304,5.335,5.3345,5.3395,5.3398,5.3431,5.3441,5.3452,5.346,5.3497,5.3517,5.3516,5.352,5.3541,5.3562,5.356,5.3569,5.359,5.3584,5.3498,5.3486,5.3474,5.3463,5.3592,5.3592,5.3674,5.3675,5.3675]}]]